Vorticity
nan nan nan nan nan nan nan nan nan nan nan nan nan nan nan nan nan nan nan nan nan nan
nan 6 10 5 4 9 8 11 13 8 9 8 7 6 8 9 8 8 9 8 8 nan
nan 4 5 11 6 7 8 8 14 13 9 8 8 7 6 7 10 8 8 10 9 nan
nan 10 6 6 8 6 9 9 11 13 11 10 8 7 7 6 8 8 9 9 10 nan
nan 10 9 5 8 9 6 8 8 12 10 9 9 8 8 8 7 8 8 8 8 nan
nan 9 9 8 3 8 9 6 7 9 12 9 9 9 8 8 7 6 7 9 7 nan
nan 8 9 9 9 5 8 8 7 7 10 12 9 8 9 7 7 6 6 9 9 nan
nan 9 8 9 9 10 7 8 8 8 6 9 9 9 10 9 8 8 7 6 9 nan
nan 10 9 8 9 9 10 8 8 8 8 4 8 13 10 6 7 9 8 7 8 nan
nan 9 10 9 9 9 9 10 9 8 9 9 8 13 12 6 4 9 9 8 7 nan
nan 10 10 10 9 9 10 9 9 11 9 8 11 14 12 11 5 6 8 10 9 nan
nan 11 10 10 9 9 9 10 11 10 11 9 10 13 11 9 10 9 10 9 10 nan
nan 12 11 11 10 10 11 9 10 11 11 10 11 11 14 5 7 11 12 12 13 nan
nan nan nan nan nan nan nan nan nan nan nan nan nan nan nan nan nan nan nan nan nan nan
CAPE
1634 1356 852 1380 491 539 1023 1479 1412 2179 1738 1820 1744 1788 1986 1944 2028 1751 1209 1553 606 37
1104 2149 1035 571 1514 177 693 938 1582 1818 2276 1813 1672 1633 1953 2234 1915 2016 1613 1061 1316 584
1185 1101 1967 795 738 1723 369 670 1498 1789 2030 1960 1871 1881 1998 2362 2323 1986 1877 1403 1209 1045
1760 1194 1673 1765 888 1785 1247 1544 1292 1985 1990 1950 2072 2269 2191 2038 2032 2376 2083 1603 1317 1024
2179 1944 1383 1942 1999 920 2179 1376 2290 2362 2105 2232 2044 1965 2499 2105 2202 1898 2171 1819 1128 1099
2105 2313 1764 1721 1830 2283 1340 2483 1604 2625 2359 2292 2343 2310 2140 2347 2194 1894 2211 2018 1391 973
2415 2370 2479 2056 1801 1581 2359 2107 2929 1882 2572 2400 2395 2291 2408 2355 2397 2268 1796 2204 1942 1549
2595 2398 2379 2393 2442 2282 1774 2504 2237 2630 2337 2679 2389 2462 2327 2448 2418 2419 2405 1831 2375 2114
2593 2580 2393 2449 2404 2671 2650 2106 2395 2411 2449 2699 2803 2646 2131 2372 2478 2486 2570 2560 1928 2513
2688 2571 2624 2520 2701 2672 2871 2924 2590 2428 2722 2624 2755 2617 1522 1608 2505 2495 2633 2664 2586 2087
2588 2785 2698 2789 2677 2911 2930 3055 3158 3066 2815 3012 2923 2672 1321 837 2349 2568 2540 2835 2791 2689
2694 2751 2922 2871 3049 3026 3041 3122 3172 3367 3307 3211 3206 2426 1459 312 2010 2607 2649 2689 2765 2896
2789 2942 2886 3019 3038 3198 3292 3237 3279 3277 3496 3388 3413 3155 1049 317 2308 2598 2645 2615 2562 2303
3374 3301 3259 3153 3267 3384 3513 3548 3525 3557 3553 3695 3557 3464 1831 165 2329 2896 2846 2693 2564 2493